Orbital elements:
2012 AA3 Earth MOID = 0.1755 AU
Epoch 2012 Mar. 14.0 TT = JDT 2456000.5 MPC
M 38.29110 (2000.0) P Q
n 0.36423992 Peri. 164.99481 +0.25017941 -0.95407552
a 1.9418292 Node 270.30754 +0.87047317 +0.29615605
e 0.4049197 Incl. 9.48419 +0.42389470 -0.04507215
P 2.71 H 22.4 G 0.15 U 8